Location: Unspecified
(41.1637°N, 24.2901°E)
Time: 15:21:52
(UTC+01:00)

ISS - Pass Details

Date: 26 November 2020
Orbit: 418 x 421 km, 51.6° (Epoch: 29 November)

Event Time Altitude Azimuth Distance (km) Brightness Sun altitude
Rises 16:33:51 0° 262° (W) 2,356 2.0 -7.2°
Reaches altitude 10° 16:36:09 10° 275° (W) 1,495 0.2 -7.6°
Maximum altitude 16:39:05 28° 336° (NNW) 827 -2.2 -8.1°
Drops below altitude 10° 16:42:02 10° 37° (NE) 1,499 -1.5 -8.7°
Enters shadow 16:42:16 - 39° (NE) 1,581 -1.4 -8.7°
